Вернуться в каталог

SL-16 DEB

АктивенLEO
NORAD 18411·DEBRIS·🇷🇺 Russia

Запущен May 13, 1987 с Baikonur Cosmodrome

Loading…

Ближайшие Пролёты (ближайшие 24 часа)

TLE

СвежийSource: Space-Track

Эпоха: Sep 14, 2026, 10:53 UTC

1 18411U 87041D   26257.45364676  .00000033  00000-0  67125-4 0  9999
2 18411  71.0284 257.4771 0186106  82.9841  67.3324 13.76497441974524

Отслеживайте SL-16 DEB в реальном времени с AllMySat

Download on the App Store